Tracking 19279 objects as of 14-Nov-2018
HD Live streaming from Space Station
objects crossing your sky now

GORIZONT 2

Track GORIZONT 2 now!
GORIZONT 2 is classified as:


NORAD ID: 11440
Int'l Code: 1979-062A
Perigee: 35,755.9 km
Apogee: 35,812.2 km
Inclination: 12.0 °
Period: 1,435.6 minutes
Semi major axis: 42155 km
RCS: 3.981 m2 (large)
Launch date: July 5, 1979
Source: Commonwealth of Independent States (former USSR) (CIS)
Launch site: TYURATAM MISSILE AND SPACE COMPLEX (TTMTR)
aabbcc
Your satellite tracking list
Your tracking list is empty




NASA's NSSDC Master Catalog

Two Line Element Set (TLE):
1 11440U 79062A   18317.53676047 -.00000074  00000-0  00000+0 0  9993
2 11440  12.0324 317.5243 0006673 294.5947  65.1424  1.00306394110203
Source of the keplerian elements: AFSPC